sat.trackr.live / text

‹ back to catalog

CHUANGXIN 1-02 (CX-1-02)

NORAD 33434 · 2008-056B

PAYLOAD ACTIVE UNKNOWN

§ Identity

Operator
Country
PRC
Launch date
2008-11-05
Launch site
JSC
Launch vehicle
Mass (kg)
RCS (m²)
0.54

External: N2YO · Heavens-Above · Gunter

§ Orbital elements

Epoch: 2026-09-20T05:39:51.693408Z

Period
100.69 min
Inclination
98.6104°
Eccentricity
0.0013409
Mean motion
14.30169309 rev/d
Perigee alt
781.6 km
Apogee alt
800.8 km
Semi-major
7,169.3 km
B*
7.2764e-5
RAAN
288.5380°
Arg perigee
217.6516°
Mean anomaly
142.3728°
Rev number
93,220

§ Raw data

CHUANGXIN 1-02 (CX-1-02)1 33434U 08056B   26263.23601497  .00000145  00000+0  72764-4 0  99962 33434  98.6104 288.5380 0013409 217.6516 142.3728 14.30169309932205

JSON: /api/v1/satellites/33434 · /tle

For live sub-satellite position, see the globe view (requires WebGL).

§ Visibility from observer

Set your observer location to see the next 7 days of passes ≥ 10°. The values pass through the URL so the page stays shareable.

No JS? Fill the form by hand. The geolocation button needs JavaScript.

§ Radio — SatNOGS DB

ModeDescriptionDownlinkUplink
FM S-band telemetry 2.250 GHz

1 transmitter · refreshed weekly from db.satnogs.org